| time (UTC) | temp F | wind direction | speed knots | gust knots | rain 1hr in | rain 24hr in | rain mn in | humidity % | barometer mb |
| 20260506203518 | 51 | 10 | 6.1 | 10.4 | 0.00 | 0.00 | 0.00 | 49 | 1012.9 |
| 20260506203028 | 51 | 17 | 5.2 | 10.4 | 0.00 | 0.00 | 0.00 | 51 | 1012.8 |
| 20260506202519 | 52 | 52 | 6.1 | 10.4 | 0.00 | 0.00 | 0.00 | 52 | 1012.8 |
| 20260506202029 | 52 | 13 | 5.2 | 9.6 | 0.00 | 0.00 | 0.00 | 53 | 1012.8 |
| 20260506201519 | 52 | 13 | 7.8 | 9.6 | 0.00 | 0.00 | 0.00 | 55 | 1012.7 |
| 20260506201028 | 52 | 10 | 5.2 | 9.6 | 0.00 | 0.00 | 0.00 | 55 | 1012.7 |
| 20260506200518 | 52 | 16 | 5.2 | 8.7 | 0.00 | 0.00 | 0.00 | 56 | 1012.7 |
| 20260506200027 | 52 | 10 | 6.1 | 8.7 | 0.00 | 0.00 | 0.00 | 57 | 1012.6 |
| 20260506195502 | 53 | 16 | 7.0 | 10.4 | 0.00 | 0.00 | 0.00 | 57 | 1012.4 |
| 20260506195002 | 53 | 13 | 7.0 | 10.4 | 0.00 | 0.00 | 0.00 | 58 | 1012.3 |
| 20260506193430 | 53 | 18 | 7.0 | 13.9 | 0.00 | 0.00 | 0.00 | 58 | 1012.2 |
| 20260506192930 | 53 | 35 | 10.4 | 11.3 | 0.00 | 0.00 | 0.00 | 59 | 1012.1 |
| 20260506192432 | 53 | 10 | 6.1 | 11.3 | 0.00 | 0.00 | 0.00 | 59 | 1012.1 |
| 20260506191929 | 53 | 10 | 7.8 | 11.3 | 0.00 | 0.00 | 0.00 | 59 | 1012.0 |
| 20260506190930 | 54 | 28 | 5.2 | 10.4 | 0.00 | 0.00 | 0.00 | 57 | 1011.9 |
| 20260506190426 | 54 | 10 | 5.2 | 11.3 | 0.00 | 0.00 | 0.00 | 57 | 1011.8 |
| 20260506185918 | 54 | 10 | 7.8 | 11.3 | 0.00 | 0.00 | 0.00 | 57 | 1011.7 |
| 20260506185418 | 55 | 54 | 6.1 | 11.3 | 0.00 | 0.00 | 0.00 | 56 | 1011.6 |
| 20260506184902 | 55 | 28 | 7.0 | 13.9 | 0.00 | 0.00 | 0.00 | 56 | 1011.5 |
| 20260506184402 | 55 | 31 | 10.4 | 13.9 | 0.00 | 0.00 | 0.00 | 56 | 1011.4 |
| 20260506183901 | 55 | 13 | 7.8 | 15.6 | 0.00 | 0.00 | 0.00 | 56 | 1011.4 |
| 20260506183402 | 55 | 28 | 8.7 | 15.6 | 0.00 | 0.00 | 0.00 | 55 | 1011.3 |
| 20260506182831 | 55 | 20 | 9.6 | 12.2 | 0.00 | 0.00 | 0.00 | 55 | 1011.3 |
| 20260506182331 | 56 | 16 | 7.8 | 13.9 | 0.00 | 0.00 | 0.00 | 55 | 1011.3 |
| 20260506181831 | 56 | 17 | 7.0 | 13.9 | 0.00 | 0.00 | 0.00 | 55 | 1011.3 |
| 20260506181330 | 56 | 24 | 11.3 | 13.0 | 0.00 | 0.00 | 0.00 | 55 | 1011.0 |
| 20260506180819 | 56 | 14 | 9.6 | 13.0 | 0.00 | 0.00 | 0.00 | 56 | 1011.0 |
| 20260506175818 | 56 | 21 | 7.8 | 15.6 | 0.00 | 0.00 | 0.00 | 56 | 1011.0 |
| 20260506174807 | 56 | 37 | 9.6 | 15.6 | 0.00 | 0.00 | 0.00 | 56 | 1010.7 |
| 20260506173802 | 56 | 10 | 8.7 | 13.9 | 0.00 | 0.00 | 0.00 | 56 | 1010.6 |
| 20260506173301 | 56 | 48 | 9.6 | 13.9 | 0.00 | 0.00 | 0.00 | 56 | 1010.6 |
| 20260506172232 | 56 | 10 | 7.8 | 16.5 | 0.00 | 0.00 | 0.00 | 56 | 1010.6 |
| 20260506171730 | 57 | 24 | 9.6 | 14.8 | 0.00 | 0.00 | 0.00 | 56 | 1010.4 |
| 20260506171230 | 57 | 31 | 8.7 | 14.8 | 0.00 | 0.00 | 0.00 | 56 | 1010.5 |
| 20260506170229 | 57 | 16 | 11.3 | 14.8 | 0.00 | 0.00 | 0.00 | 56 | 1010.4 |
| 20260506165730 | 57 | 16 | 5.2 | 13.9 | 0.00 | 0.00 | 0.00 | 56 | 1010.5 |
| 20260506163721 | 57 | 59 | 9.6 | 13.9 | 0.00 | 0.00 | 0.00 | 56 | 1010.4 |
| 20260506163219 | 57 | 41 | 7.8 | 13.9 | 0.00 | 0.00 | 0.00 | 56 | 1010.3 |
| 20260506162719 | 56 | 26 | 9.6 | 13.0 | 0.00 | 0.00 | 0.00 | 56 | 1010.2 |
| 20260506162218 | 56 | 28 | 7.8 | 13.0 | 0.00 | 0.00 | 0.00 | 56 | 1010.2 |
| 20260506161723 | 56 | 10 | 7.8 | 13.0 | 0.00 | 0.00 | 0.00 | 57 | 1010.2 |
| 20260506161223 | 56 | 10 | 8.7 | 13.0 | 0.00 | 0.00 | 0.00 | 56 | 1010.2 |
| 20260506160721 | 56 | 21 | 5.2 | 13.0 | 0.00 | 0.00 | 0.00 | 57 | 1010.2 |
| 20260506155718 | 57 | 28 | 8.7 | 14.8 | 0.00 | 0.00 | 0.00 | 56 | 1010.2 |
| 20260506155217 | 57 | 44 | 8.7 | 13.0 | 0.00 | 0.00 | 0.00 | 56 | 1010.1 |
| 20260506154707 | 57 | 66 | 8.7 | 12.2 | 0.00 | 0.00 | 0.00 | 56 | 1010.2 |
| 20260506154203 | 57 | 38 | 5.2 | 13.9 | 0.00 | 0.00 | 0.00 | 56 | 1010.3 |
| 20260506153701 | 56 | 10 | 7.0 | 13.9 | 0.00 | 0.00 | 0.00 | 56 | 1010.3 |
| 20260506153203 | 56 | 10 | 7.0 | 12.2 | 0.00 | 0.00 | 0.00 | 56 | 1010.2 |
| 20260506152702 | 56 | 10 | 7.8 | 12.2 | 0.00 | 0.00 | 0.00 | 56 | 1010.3 |
| 20260506152203 | 56 | 21 | 4.3 | 10.4 | 0.00 | 0.00 | 0.00 | 56 | 1010.2 |
| 20260506151701 | 56 | 40 | 5.2 | 14.8 | 0.00 | 0.00 | 0.00 | 56 | 1010.2 |
| 20260506151138 | 56 | 17 | 9.6 | 14.8 | 0.00 | 0.00 | 0.00 | 56 | 1010.0 |
| 20260506150130 | 56 | 10 | 9.6 | 13.9 | 0.00 | 0.00 | 0.00 | 56 | 1010.2 |
| 20260506145121 | 56 | 24 | 10.4 | 13.0 | 0.00 | 0.00 | 0.00 | 56 | 1010.1 |
| 20260506144620 | 56 | 30 | 7.0 | 13.0 | 0.00 | 0.00 | 0.00 | 56 | 1010.1 |
| 20260506144118 | 56 | 18 | 7.8 | 13.0 | 0.00 | 0.00 | 0.00 | 56 | 1010.2 |
| 20260506143617 | 56 | 10 | 7.0 | 13.0 | 0.00 | 0.00 | 0.00 | 56 | 1010.2 |
| 20260506143118 | 56 | 10 | 7.8 | 12.2 | 0.00 | 0.00 | 0.00 | 56 | 1010.2 |
| 20260506142617 | 57 | 17 | 8.7 | 12.2 | 0.00 | 0.00 | 0.00 | 56 | 1010.1 |
| 20260506142117 | 57 | 21 | 7.8 | 11.3 | 0.00 | 0.00 | 0.00 | 56 | 1010.1 |
| 20260506141617 | 57 | 16 | 7.8 | 11.3 | 0.00 | 0.00 | 0.00 | 56 | 1010.1 |
| 20260506141117 | 57 | 27 | 6.1 | 11.3 | 0.00 | 0.00 | 0.00 | 56 | 1010.1 |
| 20260506140117 | 56 | 17 | 7.8 | 12.2 | 0.00 | 0.00 | 0.00 | 56 | 1010.1 |
| 20260506135617 | 56 | 10 | 7.8 | 12.2 | 0.00 | 0.00 | 0.00 | 56 | 1010.1 |
| 20260506134617 | 56 | 10 | 10.4 | 14.8 | 0.00 | 0.00 | 0.00 | 56 | 1010.0 |
| 20260506133117 | 56 | 11 | 10.4 | 14.8 | 0.00 | 0.00 | 0.00 | 56 | 1010.0 |
| 20260506132617 | 56 | 10 | 10.4 | 13.0 | 0.00 | 0.00 | 0.00 | 56 | 1009.9 |
| 20260506132117 | 56 | 34 | 6.1 | 14.8 | 0.00 | 0.00 | 0.00 | 56 | 1010.1 |
| 20260506131617 | 57 | 13 | 12.2 | 14.8 | 0.00 | 0.00 | 0.00 | 55 | 1009.9 |
| 20260506131117 | 57 | 17 | 6.1 | 14.8 | 0.00 | 0.00 | 0.00 | 55 | 1009.9 |
| 20260506130617 | 57 | 28 | 6.1 | 13.0 | 0.00 | 0.00 | 0.00 | 55 | 1009.8 |
| 20260506130117 | 57 | 26 | 9.6 | 13.0 | 0.00 | 0.00 | 0.00 | 54 | 1009.8 |
| 20260506125617 | 57 | 35 | 4.3 | 13.0 | 0.00 | 0.00 | 0.00 | 54 | 1009.8 |
| 20260506125116 | 57 | 8 | 7.0 | 14.8 | 0.00 | 0.00 | 0.00 | 54 | 1009.7 |
| 20260506124618 | 57 | 14 | 11.3 | 14.8 | 0.00 | 0.00 | 0.00 | 54 | 1009.6 |
| 20260506124117 | 56 | 13 | 9.6 | 14.8 | 0.00 | 0.00 | 0.00 | 54 | 1009.7 |
| 20260506123618 | 57 | 51 | 7.8 | 16.5 | 0.00 | 0.00 | 0.00 | 55 | 1009.7 |
| 20260506123117 | 57 | 5 | 8.7 | 16.5 | 0.00 | 0.00 | 0.00 | 54 | 1009.7 |
| 20260506122617 | 58 | 14 | 8.7 | 20.0 | 0.00 | 0.00 | 0.00 | 53 | 1009.6 |
| 20260506122117 | 58 | 11 | 10.4 | 20.0 | 0.00 | 0.00 | 0.00 | 53 | 1009.6 |
| 20260506121617 | 58 | 37 | 8.7 | 16.5 | 0.00 | 0.00 | 0.00 | 54 | 1009.7 |
| 20260506121117 | 57 | 20 | 12.2 | 16.5 | 0.00 | 0.00 | 0.00 | 55 | 1009.6 |
| 20260506120623 | 57 | 116 | 7.8 | 13.0 | 0.00 | 0.00 | 0.00 | 55 | 1009.6 |
| 20260506115617 | 57 | 35 | 11.3 | 13.9 | 0.00 | 0.00 | 0.00 | 54 | 1009.6 |
| 20260506115117 | 58 | 106 | 9.6 | 14.8 | 0.00 | 0.00 | 0.00 | 54 | 1009.6 |
| 20260506114619 | 57 | 10 | 11.3 | 14.8 | 0.00 | 0.00 | 0.00 | 54 | 1009.5 |
| 20260506113618 | 57 | 21 | 7.8 | 14.8 | 0.00 | 0.00 | 0.00 | 54 | 1009.7 |
| 20260506113118 | 57 | 10 | 10.4 | 13.9 | 0.00 | 0.00 | 0.00 | 54 | 1009.5 |
| 20260506112618 | 57 | 14 | 8.7 | 16.5 | 0.00 | 0.00 | 0.00 | 52 | 1009.7 |
| 20260506112117 | 57 | 47 | 7.0 | 16.5 | 0.00 | 0.00 | 0.00 | 52 | 1009.6 |
| 20260506111617 | 58 | 10 | 8.7 | 15.6 | 0.00 | 0.00 | 0.00 | 53 | 1009.7 |
| 20260506111117 | 57 | 10 | 11.3 | 15.6 | 0.00 | 0.00 | 0.00 | 54 | 1009.5 |
| 20260506110617 | 57 | 10 | 11.3 | 14.8 | 0.00 | 0.00 | 0.00 | 52 | 1009.7 |
| 20260506110117 | 57 | 21 | 9.6 | 14.8 | 0.00 | 0.00 | 0.00 | 52 | 1009.5 |
| 20260506105617 | 57 | 10 | 9.6 | 14.8 | 0.00 | 0.00 | 0.00 | 52 | 1009.7 |
| 20260506105117 | 57 | 35 | 9.6 | 14.8 | 0.00 | 0.00 | 0.00 | 52 | 1009.6 |
| 20260506104617 | 56 | 11 | 10.4 | 14.8 | 0.00 | 0.00 | 0.00 | 55 | 1009.7 |
| 20260506104117 | 56 | 37 | 10.4 | 15.6 | 0.00 | 0.00 | 0.00 | 54 | 1009.6 |
| 20260506103617 | 56 | 10 | 8.7 | 15.6 | 0.00 | 0.00 | 0.00 | 54 | 1009.6 |
| 20260506103117 | 56 | 10 | 11.3 | 13.9 | 0.00 | 0.00 | 0.00 | 51 | 1009.5 |
| 20260506102617 | 56 | 42 | 7.8 | 15.6 | 0.00 | 0.00 | 0.00 | 51 | 1009.7 |
| 20260506102117 | 56 | 28 | 8.7 | 15.6 | 0.00 | 0.00 | 0.00 | 50 | 1009.6 |
| 20260506101617 | 56 | 11 | 9.6 | 13.9 | 0.00 | 0.00 | 0.00 | 45 | 1009.4 |
| 20260506101117 | 55 | 28 | 8.7 | 13.9 | 0.00 | 0.00 | 0.00 | 41 | 1009.7 |
| 20260506095617 | 55 | 33 | 8.7 | 13.0 | 0.00 | 0.00 | 0.00 | 42 | 1009.6 |
| 20260506095116 | 55 | 10 | 10.4 | 15.6 | 0.00 | 0.00 | 0.00 | 41 | 1009.6 |
| 20260506094617 | 55 | 13 | 10.4 | 16.5 | 0.00 | 0.00 | 0.00 | 42 | 1009.3 |
| 20260506094117 | 56 | 10 | 11.3 | 16.5 | 0.00 | 0.00 | 0.00 | 39 | 1009.5 |
| 20260506093616 | 55 | 13 | 9.6 | 13.9 | 0.00 | 0.00 | 0.00 | 31 | 1009.5 |
| 20260506092616 | 55 | 10 | 7.8 | 15.6 | 0.00 | 0.00 | 0.00 | 26 | 1009.5 |
| 20260506092116 | 55 | 49 | 7.8 | 15.6 | 0.00 | 0.00 | 0.00 | 27 | 1009.5 |
| 20260506091608 | 55 | 14 | 10.4 | 14.8 | 0.00 | 0.00 | 0.00 | 25 | 1009.3 |
| 20260506091101 | 55 | 10 | 12.2 | 15.6 | 0.00 | 0.00 | 0.00 | 24 | 1009.2 |
| 20260506090601 | 54 | 10 | 10.4 | 15.6 | 0.00 | 0.00 | 0.00 | 22 | 1009.3 |
| 20260506090040 | 54 | 18 | 13.0 | 15.6 | 0.00 | 0.00 | 0.00 | 19 | 1009.3 |
| 20260506085532 | 54 | 10 | 8.7 | 13.9 | 0.00 | 0.00 | 0.00 | 19 | 1009.3 |
| 20260506085030 | 54 | 17 | 8.7 | 15.6 | 0.00 | 0.00 | 0.00 | 14 | 1009.3 |
| 20260506084529 | 54 | 10 | 7.8 | 15.6 | 0.00 | 0.00 | 0.00 | 15 | 1009.4 |
| 20260506084017 | 54 | 42 | 10.4 | 13.9 | 0.00 | 0.00 | 0.00 | 12 | 1009.4 |
| 20260506083517 | 54 | 10 | 11.3 | 13.9 | 0.00 | 0.00 | 0.00 | 12 | 1009.3 |
| 20260506083017 | 54 | 14 | 7.8 | 12.2 | 0.00 | 0.00 | 0.00 | 10 | 1009.3 |
| 20260506082517 | 53 | 10 | 9.6 | 13.0 | 0.00 | 0.00 | 0.00 | 12 | 1009.3 |
| 20260506081517 | 53 | 14 | 10.4 | 13.9 | 0.00 | 0.00 | 0.00 | 13 | 1009.2 |
| 20260506081017 | 53 | 10 | 7.0 | 12.2 | 0.00 | 0.00 | 0.00 | 13 | 1009.3 |
| 20260506080517 | 53 | 31 | 7.8 | 15.6 | 0.00 | 0.00 | 0.00 | 14 | 1009.3 |
| 20260506073502 | 53 | 10 | 10.4 | 14.8 | 0.00 | 0.00 | 0.00 | 1 | 1009.0 |
| 20260506073002 | 53 | 10 | 9.6 | 13.0 | 0.00 | 0.00 | 0.00 | 1 | 1009.1 |
| 20260506072503 | 53 | 10 | 9.6 | 13.0 | 0.00 | 0.00 | 0.00 | 1 | 1009.2 |
| 20260506071502 | 52 | 24 | 8.7 | 13.9 | 0.00 | 0.00 | 0.00 | 1 | 1009.1 |
| 20260506071002 | 52 | 13 | 8.7 | 13.0 | 0.00 | 0.00 | 0.00 | 1 | 1009.1 |
| 20260506070502 | 52 | 10 | 9.6 | 13.9 | 0.00 | 0.00 | 0.00 | 1 | 1009.1 |
| 20260506062430 | 52 | 10 | 11.3 | 15.6 | 0.00 | 0.00 | 0.00 | 1 | 1008.8 |
| 20260506061924 | 52 | 10 | 12.2 | 15.6 | 0.00 | 0.00 | 0.00 | 1 | 1008.9 |
| 20260506061423 | 51 | 10 | 13.0 | 15.6 | 0.00 | 0.00 | 0.00 | 1 | 1008.8 |
| 20260506060917 | 52 | 10 | 12.2 | 15.6 | 0.00 | 0.00 | 0.00 | 1 | 1008.9 |
| 20260506060416 | 51 | 10 | 10.4 | 14.8 | 0.00 | 0.00 | 0.00 | 1 | 1008.7 |
| 20260506051330 | 51 | 10 | 9.6 | 13.0 | 0.00 | 0.00 | 0.00 | 1 | 1008.9 |
| 20260506050831 | 51 | 10 | 9.6 | 13.0 | 0.00 | 0.00 | 0.00 | 1 | 1008.9 |
| 20260506050330 | 51 | 26 | 9.6 | 13.0 | 0.00 | 0.00 | 0.00 | 1 | 1008.9 |
| 20260506044829 | 50 | 10 | 8.7 | 13.0 | 0.00 | 0.00 | 0.00 | 1 | 1008.9 |
| 20260506044321 | 50 | 10 | 9.6 | 12.2 | 0.00 | 0.00 | 0.00 | 1 | 1009.0 |
| 20260506043817 | 51 | 13 | 10.4 | 12.2 | 0.00 | 0.00 | 0.00 | 1 | 1008.9 |
| 20260506043316 | 50 | 1 | 9.6 | 13.9 | 0.00 | 0.00 | 0.00 | 1 | 1008.9 |
| 20260506042816 | 50 | 10 | 7.8 | 13.9 | 0.00 | 0.00 | 0.00 | 1 | 1009.0 |
| 20260506042316 | 50 | 13 | 11.3 | 13.9 | 0.00 | 0.00 | 0.00 | 1 | 1008.9 |
| 20260506041316 | 50 | 44 | 7.8 | 15.6 | 0.00 | 0.00 | 0.00 | 1 | 1009.0 |
| 20260506040816 | 50 | 10 | 7.8 | 15.6 | 0.00 | 0.00 | 0.00 | 1 | 1009.0 |
| 20260506040316 | 51 | 10 | 9.6 | 15.6 | 0.00 | 0.00 | 0.00 | 1 | 1008.9 |
| 20260506035817 | 50 | 10 | 10.4 | 15.6 | 0.00 | 0.00 | 0.00 | 1 | 1009.0 |
| 20260506035317 | 51 | 14 | 12.2 | 16.5 | 0.00 | 0.00 | 0.00 | 1 | 1008.9 |
| 20260506034815 | 51 | 13 | 14.8 | 16.5 | 0.00 | 0.00 | 0.00 | 1 | 1008.8 |
| 20260506034316 | 51 | 24 | 13.0 | 15.6 | 0.00 | 0.00 | 0.00 | 1 | 1009.0 |
| 20260506033817 | 51 | 10 | 9.6 | 13.9 | 0.00 | 0.00 | 0.00 | 1 | 1009.0 |
| 20260506033322 | 51 | 17 | 8.7 | 13.9 | 0.00 | 0.00 | 0.00 | 1 | 1009.0 |
| 20260506032816 | 50 | 17 | 10.4 | 13.9 | 0.00 | 0.00 | 0.00 | 1 | 1009.1 |
| 20260506032316 | 50 | 10 | 9.6 | 14.8 | 0.00 | 0.00 | 0.00 | 1 | 1009.1 |
| 20260506031816 | 50 | 13 | 10.4 | 16.5 | 0.00 | 0.00 | 0.00 | 1 | 1009.2 |
| 20260506031316 | 51 | 10 | 12.2 | 17.4 | 0.00 | 0.00 | 0.00 | 1 | 1009.2 |
| 20260506030816 | 51 | 14 | 13.0 | 17.4 | 0.00 | 0.00 | 0.00 | 1 | 1009.1 |
| 20260506030316 | 51 | 10 | 13.0 | 17.4 | 0.00 | 0.00 | 0.00 | 1 | 1009.2 |
| 20260506024817 | 50 | 10 | 11.3 | 15.6 | 0.00 | 0.00 | 0.00 | 1 | 1009.3 |
| 20260506023816 | 50 | 20 | 13.0 | 15.6 | 0.00 | 0.00 | 0.00 | 1 | 1009.3 |
| 20260506023317 | 50 | 10 | 12.2 | 14.8 | 0.00 | 0.00 | 0.00 | 1 | 1009.4 |
| 20260506022816 | 50 | 10 | 10.4 | 14.8 | 0.00 | 0.00 | 0.00 | 1 | 1009.3 |
| 20260506021816 | 50 | 10 | 11.3 | 13.0 | 0.00 | 0.00 | 0.00 | 1 | 1009.4 |
| 20260506021315 | 50 | 14 | 8.7 | 13.0 | 0.00 | 0.00 | 0.00 | 1 | 1009.5 |
| 20260506020316 | 50 | 26 | 9.6 | 12.2 | 0.00 | 0.00 | 0.00 | 1 | 1009.5 |
| 20260506015816 | 50 | 10 | 8.7 | 11.3 | 0.00 | 0.00 | 0.00 | 3 | 1009.5 |
| 20260506015317 | 50 | 10 | 7.0 | 10.4 | 0.00 | 0.00 | 0.00 | 3 | 1009.7 |
| 20260506014817 | 50 | 14 | 7.8 | 12.2 | 0.00 | 0.00 | 0.00 | 3 | 1009.5 |
| 20260506014317 | 50 | 10 | 10.4 | 12.2 | 0.00 | 0.00 | 0.00 | 3 | 1009.7 |
| 20260506013816 | 50 | 10 | 9.6 | 13.0 | 0.00 | 0.00 | 0.00 | 2 | 1009.7 |
| 20260506013316 | 50 | 14 | 9.6 | 13.0 | 0.00 | 0.00 | 0.00 | 3 | 1009.6 |
| 20260506012816 | 49 | 28 | 7.8 | 10.4 | 0.00 | 0.00 | 0.00 | 3 | 1009.6 |
| 20260506012317 | 49 | 18 | 7.0 | 9.6 | 0.00 | 0.00 | 0.00 | 4 | 1009.7 |
| 20260506011816 | 49 | 10 | 7.8 | 10.4 | 0.00 | 0.00 | 0.00 | 4 | 1009.6 |
| 20260506011316 | 49 | 17 | 7.8 | 10.4 | 0.00 | 0.00 | 0.00 | 4 | 1009.6 |
| 20260506010816 | 49 | 14 | 7.8 | 10.4 | 0.00 | 0.00 | 0.00 | 5 | 1009.8 |
| 20260506005816 | 49 | 16 | 7.0 | 10.4 | 0.00 | 0.00 | 0.00 | 5 | 1009.8 |
| 20260506005316 | 49 | 24 | 7.0 | 10.4 | 0.00 | 0.00 | 0.00 | 6 | 1009.9 |
| 20260506004816 | 49 | 10 | 6.1 | 10.4 | 0.00 | 0.00 | 0.00 | 6 | 1009.9 |
| 20260506004316 | 49 | 10 | 7.8 | 10.4 | 0.00 | 0.00 | 0.00 | 6 | 1009.9 |
| 20260506003816 | 49 | 10 | 7.0 | 10.4 | 0.00 | 0.00 | 0.00 | 6 | 1010.0 |
| 20260506003322 | 49 | 20 | 7.8 | 10.4 | 0.00 | 0.00 | 0.00 | 7 | 1010.0 |
| 20260506002816 | 49 | 10 | 7.0 | 10.4 | 0.00 | 0.00 | 0.00 | 7 | 1010.1 |
| 20260506002317 | 49 | 13 | 7.8 | 10.4 | 0.00 | 0.00 | 0.00 | 8 | 1010.2 |
| 20260506001816 | 49 | 10 | 7.8 | 11.3 | 0.00 | 0.00 | 0.00 | 9 | 1010.2 |
| 20260506001316 | 49 | 16 | 7.8 | 11.3 | 0.00 | 0.00 | 0.00 | 9 | 1010.3 |
| 20260506000816 | 49 | 13 | 8.7 | 11.3 | 0.00 | 0.00 | 0.00 | 10 | 1010.2 |
| 20260506000316 | 49 | 11 | 8.7 | 11.3 | 0.00 | 0.00 | 0.00 | 11 | 1010.2 |
| 20260505235816 | 49 | 10 | 7.8 | 11.3 | 0.00 | 0.00 | 0.00 | 11 | 1010.3 |
| 20260505234815 | 49 | 10 | 7.0 | 9.6 | 0.00 | 0.00 | 0.00 | 14 | 1010.5 |
| 20260505234316 | 49 | 27 | 7.0 | 9.6 | 0.00 | 0.00 | 0.00 | 14 | 1010.6 |
| 20260505233815 | 49 | 17 | 7.0 | 12.2 | 0.00 | 0.00 | 0.00 | 14 | 1010.5 |
| 20260505233317 | 49 | 353 | 8.7 | 12.2 | 0.00 | 0.00 | 0.00 | 14 | 1010.4 |
| 20260505232816 | 49 | 10 | 8.7 | 11.3 | 0.00 | 0.00 | 0.00 | 15 | 1010.5 |
| 20260505232316 | 49 | 10 | 7.0 | 10.4 | 0.00 | 0.00 | 0.00 | 16 | 1010.5 |
| 20260505231816 | 49 | 10 | 7.0 | 10.4 | 0.00 | 0.00 | 0.00 | 16 | 1010.7 |
| 20260505231309 | 49 | 10 | 7.0 | 11.3 | 0.00 | 0.00 | 0.00 | 16 | 1010.8 |
| 20260505230802 | 49 | 21 | 9.6 | 11.3 | 0.00 | 0.00 | 0.00 | 17 | 1010.7 |
| 20260505230255 | 49 | 24 | 7.0 | 11.3 | 0.00 | 0.00 | 0.00 | 17 | 1010.7 |
| 20260505225745 | 49 | 358 | 7.8 | 10.4 | 0.00 | 0.00 | 0.00 | 17 | 1010.8 |
| 20260505225240 | 49 | 10 | 6.1 | 9.6 | 0.00 | 0.00 | 0.00 | 18 | 1010.7 |
| 20260505223730 | 49 | 17 | 5.2 | 9.6 | 0.00 | 0.00 | 0.00 | 19 | 1010.8 |
| 20260505222729 | 49 | 28 | 6.1 | 9.6 | 0.00 | 0.00 | 0.00 | 20 | 1010.8 |
| 20260505221726 | 49 | 357 | 5.2 | 9.6 | 0.00 | 0.00 | 0.00 | 21 | 1010.8 |
| 20260505221221 | 49 | 14 | 5.2 | 10.4 | 0.00 | 0.00 | 0.00 | 21 | 1010.9 |
| 20260505220721 | 49 | 35 | 5.2 | 10.4 | 0.00 | 0.00 | 0.00 | 21 | 1011.0 |
| 20260505215716 | 49 | 33 | 7.0 | 10.4 | 0.00 | 0.00 | 0.00 | 22 | 1011.0 |
| 20260505215215 | 50 | 28 | 6.1 | 10.4 | 0.00 | 0.00 | 0.00 | 23 | 1011.0 |
| 20260505214702 | 50 | 20 | 7.0 | 9.6 | 0.00 | 0.00 | 0.00 | 24 | 1011.1 |
| 20260505214202 | 50 | 20 | 7.8 | 9.6 | 0.00 | 0.00 | 0.00 | 24 | 1011.2 |
| 20260505213701 | 50 | 11 | 6.1 | 9.6 | 0.00 | 0.00 | 0.00 | 24 | 1011.1 |
| 20260505212702 | 50 | 47 | 7.0 | 8.7 | 0.00 | 0.00 | 0.00 | 26 | 1011.2 |
| 20260505211655 | 50 | 24 | 4.3 | 11.3 | 0.00 | 0.00 | 0.00 | 28 | 1011.2 |
| 20260505211139 | 50 | 14 | 6.1 | 11.3 | 0.00 | 0.00 | 0.00 | 29 | 1011.2 |
| 20260505210640 | 50 | 11 | 6.1 | 12.2 | 0.00 | 0.00 | 0.00 | 30 | 1011.2 |
| 20260505210139 | 50 | 37 | 6.1 | 12.2 | 0.00 | 0.00 | 0.00 | 30 | 1011.2 |
| 20260505204629 | 50 | 17 | 7.0 | 10.4 | 0.00 | 0.00 | 0.00 | 32 | 1011.1 |
| 20260505204130 | 50 | 23 | 6.1 | 8.7 | 0.00 | 0.00 | 0.00 | 32 | 1011.2 |